Location: Acton
(51.4942°N, 0.2232°W)
Time: 12:29:12
(UTC+00:00)

NOSS 3-1 (A) - Pass Details

Date: 18 September 2020
Orbit: 745 x 1467 km, 63.4° (Epoch: 08 October)

Event Time Altitude Azimuth Distance (km) Brightness Sun altitude
Rises 18:53:38 0° 241° (WSW) 3,328 7.1 -7.9°
Reaches altitude 10° 18:55:58 10° 246° (WSW) 2,465 6.5 -8.3°
Maximum altitude 19:01:34 57° 325° (NW) 1,101 4.1 -9.1°
Drops below altitude 10° 19:08:16 10° 44° (NE) 2,928 5.7 -10.2°
Sets 19:11:16 0° 48° (NE) 4,006 6.4 -10.6°
